This demonstration page uses our WeatherBlox Daily Observations layout. Learn more.

Left ArrowRight Arrow

41.55636, -103.73856

Hourly Observations for May 29, 2022

Temp ( °F °C ) Dew Point ( °F °C ) Humidity (%) Winds ( mph kmh ) Pressure ( in mb ) Visibility ( mi km ) Precip ( " mm )
12:58 am 00:58 Partly Cloudy 55 12.5 38 3.2 53 53 WSW 6 9 29.40 996 10 16 0.00 0.00
1:58 am 01:58 Mostly Cloudy 59 14.8 37 3 45 45 NW 3 6 29.40 996 10 16 0.00 0.00
2:58 am 02:58 Mostly Cloudy 54 12.2 38 3.4 55 55 WNW 8 13 29.40 996 10 16 0.00 0.00
3:58 am 03:58 Cloudy 51 10.5 39 3.8 64 64 W 7 11 29.41 996 10 16 0.00 0.00
4:58 am 04:58 Cloudy 52 11.2 39 3.7 60 60 W 6 9 29.41 996 10 16 0.00 0.00
5:58 am 05:58 Partly Cloudy 54 12 39 4 58 58 WNW 3 6 29.42 996 10 16 0.00 0.00
6:58 am 06:58 Sunny 54 12.3 42 5.5 63 63 Calm 29.41 996 10 16 0.00 0.00
7:58 am 07:58 Sunny 60 15.4 42 5.3 51 51 Calm 29.41 996 10 16 0.00 0.00
8:58 am 08:58 Sunny 63 17.1 39 3.7 41 41 NNW 9 15 29.39 995 10 16 0.00 0.00
9:58 am 09:58 Partly Cloudy 65 18.5 37 2.7 35 35 NW 10 17 29.38 995 10 16 0.00 0.00
10:58 am 10:58 Sunny 67 19.3 38 3.4 35 35 NW 8 13 29.38 995 10 16 0.00 0.00
11:58 am 11:58 Sunny 69 20.4 42 5.6 38 38 NNE 10 17 29.37 995 10 16 0.00 0.00
12:58 pm 12:58 Sunny 71 21.4 41 4.9 34 34 E 7 11 29.34 994 10 16 0.00 0.00
1:58 pm 13:58 Sunny 73 22.7 39 3.7 29 29 SE 8 13 29.29 992 10 16 0.00 0.00
2:58 pm 14:58 Partly Cloudy with Nearby Thunderstorms 74 23.4 40 4.3 29 29 SE 12 19 29.30 992 10 16 0.00 0.00
3:58 pm 15:58 Cloudy with Nearby Thunderstorms 53 11.9 48 9.1 83 83 WNW 22 35 29.47 998 10 16 0.05 1.27
4:58 pm 16:58 Cloudy with Light Rain 53 11.7 49 9.6 87 87 NW 18 30 29.45 997 10 16 0.09 2.29
5:58 pm 17:58 Cloudy 55 13 48 9.1 77 77 SSW 5 7 29.44 997 10 16 0.01 0.25
6:58 pm 18:58 Cloudy with Light Rain 54 12.4 48 8.9 79 79 SSE 6 9 29.43 997 10 16 0.06 1.52
7:58 pm 19:58 Cloudy 55 12.9 48 8.8 76 76 Calm 29.40 996 10 16 0.00 0.00
8:58 pm 20:58 Cloudy 53 11.8 50 10 89 89 N 9 15 29.42 996 10 16 0.00 0.00
9:58 pm 21:58 Cloudy with Nearby Thunderstorms 52 11.3 49 9.5 89 89 E 7 11 29.46 998 10 16 0.00 0.00
10:58 pm 22:58 Cloudy 52 11.3 49 9.2 87 87 SSE 7 11 29.46 998 10 16 0.02 0.51
11:58 pm 23:58 Cloudy 52 10.9 49 9.3 90 90 ESE 8 13 29.39 995 10 16 0.01 0.25

Powered by AerisWeather